H1 CPF 1 NER 2011 12 26 9 8601 glonass123 H2 1004102 9123 37138 2011 12 26 0 0 0 2011 12 29 23 45 0 900 1 1 0 0 0 H9 10 0 55921 0.00000 0 9129086.048 8550646.759 22180104.187 10 0 55921 900.00000 0 8854503.495 11215699.284 21063332.560 10 0 55921 1800.00000 0 8785262.486 13732073.074 19534849.518 10 0 55921 2700.00000 0 8898448.967 16035537.560 17624075.879 10 0 55921 3600.00000 0 9160393.370 18068768.887 15368042.304 10 0 55921 4500.00000 0 9528235.310 19783580.259 12810678.167 10 0 55921 5400.00000 0 9951903.161 21142781.154 10001951.007 10 0 55921 6300.00000 0 10376423.694 22121583.298 6996873.513 10 0 55921 7200.00000 0 10744461.184 22708490.858 3854399.055 10 0 55921 8100.00000 0 10998974.391 22905635.078 636230.009 10 0 55921 9000.00000 0 11085873.911 22728538.415 -2594434.220 10 0 55921 9900.00000 0 10956562.094 22205318.907 -5774180.586 10 0 55921 10800.00000 0 10570243.026 21375370.860 -8840667.655 10 0 55921 11700.00000 0 9895900.698 20287581.368 -11733883.259 10 0 55921 12600.00000 0 8913858.936 18998162.775 -14397346.133 10 0 55921 13500.00000 0 7616855.948 17568197.705 -16779225.326 10 0 55921 14400.00000 0 6010588.487 16061005.075 -18833353.880 10 0 55921 15300.00000 0 4113704.555 14539442.166 -20520116.691 10 0 55921 16200.00000 0 1957247.816 13063258.982 -21807196.261 10 0 55921 17100.00000 0 -416419.492 11686617.145 -22670164.088 10 0 55921 18000.00000 0 -2955166.401 10455876.782 -23092909.291 10 0 55921 18900.00000 0 -5599047.900 9407741.780 -23067900.074 10 0 55921 19800.00000 0 -8282580.747 8567837.214 -22596277.086 10 0 55921 20700.00000 0 -10937244.461 7949773.720 -21687781.034 10 0 55921 21600.00000 0 -13494103.948 7554732.623 -20360519.769 10 0 55921 22500.00000 0 -15886446.550 7371583.956 -18640582.513 10 0 55921 23400.00000 0 -18052327.013 7377527.847 -16561511.088 10 0 55921 24300.00000 0 -19936918.748 7539228.875 -14163639.762 10 0 55921 25200.00000 0 -21494578.383 7814393.645 -11493316.884 10 0 55921 26100.00000 0 -22690542.510 8153724.768 -8602022.807 10 0 55921 27000.00000 0 -23502190.524 8503169.957 -5545399.696 10 0 55921 27900.00000 0 -23919824.712 8806373.789 -2382209.707 10 0 55921 28800.00000 0 -23946937.635 9007232.007 826761.016 10 0 55921 29700.00000 0 -23599956.990 9052444.292 4019834.570 10 0 55921 30600.00000 0 -22907478.504 8893961.495 7135591.202 10 0 55921 31500.00000 0 -21909017.434 8491227.216 10114017.876 10 0 55921 32400.00000 0 -20653328.324 7813121.334 12897636.373 10 0 55921 33300.00000 0 -19196359.813 6839524.361 15432591.726 10 0 55921 34200.00000 0 -17598926.236 5562436.027 17669681.818 10 0 55921 35100.00000 0 -15924189.585 3986598.701 19565309.524 10 0 55921 36000.00000 0 -14235053.775 2129595.625 21082339.318 10 0 55921 36900.00000 0 -12591577.747 21414.917 22190841.202 10 0 55921 37800.00000 0 -11048514.250 -2296508.153 22868706.084 10 0 55921 38700.00000 0 -9653077.209 -4772736.505 23102118.390 10 0 55921 39600.00000 0 -8443032.473 -7347709.364 22885873.632 10 0 55921 40500.00000 0 -7445194.332 -9955979.481 22223531.171 10 0 55921 41400.00000 0 -6674394.167 -12528719.530 21127395.245 10 0 55921 42300.00000 0 -6132968.404 -14996394.787 19618320.654 10 0 55921 43200.00000 0 -5810791.066 -17291490.583 17725343.208 10 0 55921 44100.00000 0 -5685852.882 -19351178.991 15485139.002 10 0 55921 45000.00000 0 -5725364.915 -21119810.095 12941320.904 10 0 55921 45900.00000 0 -5887341.089 -22551119.661 10143584.879 10 0 55921 46800.00000 0 -6122592.224 -23610056.253 7146722.948 10 0 55921 47700.00000 0 -6377045.029 -24274146.963 4009523.598 10 0 55921 48600.00000 0 -6594284.297 -24534341.085 793583.742 10 0 55921 49500.00000 0 -6718205.930 -24395294.249 -2437940.978 10 0 55921 50400.00000 0 -6695663.135 -23875080.691 -5621618.711 10 0 55921 51300.00000 0 -6478988.431 -23004347.193 -8695027.209 10 0 55921 52200.00000 0 -6028279.932 -21824947.310 -11598013.447 10 0 55921 53100.00000 0 -5313351.626 -20388117.696 -14273898.527 10 0 55921 54000.00000 0 -4315262.994 -18752278.314 -16670601.567 10 0 55921 54900.00000 0 -3027362.805 -16980554.170 -18741658.935 10 0 55921 55800.00000 0 -1455804.135 -15138127.392 -20447118.544 10 0 55921 56700.00000 0 380488.830 -13289534.343 -21754292.775 10 0 55921 57600.00000 0 2450397.631 -11496023.093 -22638357.576 10 0 55921 58500.00000 0 4711702.222 -9813082.247 -23082789.159 10 0 55921 59400.00000 0 7112640.358 -8288242.955 -23079633.699 10 0 55921 60300.00000 0 9593865.770 -6959242.796 -22629608.945 10 0 55921 61200.00000 0 12090721.628 -5852623.832 -21742039.916 10 0 55921 62100.00000 0 14535734.112 -4982818.116 -20434633.752 10 0 55921 63000.00000 0 16861223.291 -4351753.293 -18733101.287 10 0 55921 63900.00000 0 19001924.846 -3948989.588 -16670635.056 10 0 55921 64800.00000 0 20897517.082 -3752378.002 -14287255.297 10 0 55921 65700.00000 0 22494952.272 -3729208.877 -11629037.032 10 0 55921 66600.00000 0 23750499.835 -3837800.963 -8747232.677 10 0 55921 67500.00000 0 24631420.802 -4029463.970 -5697305.731 10 0 55921 68400.00000 0 25117207.730 -4250753.340 -2537892.006 10 0 55921 69300.00000 0 25200341.377 -4445924.752 670294.199 10 0 55921 70200.00000 0 24886534.387 -4559488.170 3865591.036 10 0 55921 71100.00000 0 24194452.263 -4538757.321 6986538.652 10 0 55921 72000.00000 0 23154922.304 -4336290.467 9973028.306 10 0 55921 72900.00000 0 21809661.347 -3912122.257 12767431.970 10 0 55921 73800.00000 0 20209572.211 -3235694.128 15315693.182 10 0 55921 74700.00000 0 18412676.151 -2287402.172 17568359.982 10 0 55921 75600.00000 0 16481763.563 -1059695.888 19481541.275 10 0 55921 76500.00000 0 14481857.157 442321.290 21017768.522 10 0 55921 77400.00000 0 12477590.328 2200819.185 22146745.525 10 0 55921 78300.00000 0 10530607.954 4185704.162 22845970.394 10 0 55921 79200.00000 0 8697097.142 6355604.959 23101215.385 10 0 55921 80100.00000 0 7025551.476 8659345.615 22906852.220 10 0 55921 81000.00000 0 5554863.837 11037849.183 22266013.028 10 0 55921 81900.00000 0 4312830.231 13426396.907 21190579.799 10 0 55921 82800.00000 0 3315130.809 15757151.069 19700998.617 10 0 55921 83700.00000 0 2564834.441 17961837.097 17825918.546 10 0 55921 84600.00000 0 2052451.126 19974471.978 15601659.065 10 0 55921 85500.00000 0 1756532.813 21734022.314 13071514.203 10 0 55922 0.00000 0 1644798.869 23186877.059 10284905.862 10 0 55922 900.00000 0 1675738.794 24289026.628 7296402.544 10 0 55922 1800.00000 0 1800623.102 25007852.953 4164625.056 10 0 55922 2700.00000 0 1965834.121 25323449.888 951061.922 10 0 55922 3600.00000 0 2115413.914 25229417.042 -2281177.901 10 0 55922 4500.00000 0 2193716.195 24733090.813 -5468646.604 10 0 55922 5400.00000 0 2148044.504 23855203.768 -8548843.821 10 0 55922 6300.00000 0 1931159.740 22628988.393 -11461478.136 10 0 55922 7200.00000 0 1503546.662 21098766.417 -14149675.228 10 0 55922 8100.00000 0 835340.447 19318087.524 -16561106.200 10 0 55922 9000.00000 0 -92169.550 17347500.614 -18649012.378 10 0 55922 9900.00000 0 -1285522.105 15252056.035 -20373106.040 10 0 55922 10800.00000 0 -2738593.754 13098647.594 -21700330.537 10 0 55922 11700.00000 0 -4432653.639 10953308.396 -22605467.095 10 0 55922 12600.00000 0 -6336957.740 8878574.842 -23071579.562 10 0 55922 13500.00000 0 -8409854.008 6931028.266 -23090292.314 10 0 55922 14400.00000 0 -10600348.872 5159114.400 -22661900.065 10 0 55922 15300.00000 0 -12850067.170 3601327.846 -21795311.593 10 0 55922 16200.00000 0 -15095522.400 2284832.224 -20507832.359 10 0 55922 17100.00000 0 -17270602.685 1224567.972 -18824793.399 10 0 55922 18000.00000 0 -19309170.202 422879.475 -16779036.173 10 0 55922 18900.00000 0 -21147668.445 -130328.052 -14410264.796 10 0 55922 19800.00000 0 -22727632.352 -456912.642 -11764278.631 10 0 55922 20700.00000 0 -23998000.836 -589331.689 -8892099.697 10 0 55922 21600.00000 0 -24917139.742 -569040.260 -5849010.301 10 0 55922 22500.00000 0 -25454494.899 -444518.639 -2693517.384 10 0 55922 23400.00000 0 -25591809.620 -269010.432 513739.124 10 0 55922 24300.00000 0 -25323858.113 -98063.819 3711115.928 10 0 55922 25200.00000 0 -24658665.125 13023.791 6837115.537 10 0 55922 26100.00000 0 -23617202.204 11753.455 9831535.948 10 0 55922 27000.00000 0 -22232571.494 -149139.563 12636601.698 10 0 55922 27900.00000 0 -20548708.131 -509462.390 15198057.106 10 0 55922 28800.00000 0 -18618651.632 -1099646.060 17466202.494 10 0 55922 29700.00000 0 -16502454.103 -1939213.136 19396854.707 10 0 55922 30600.00000 0 -14264808.184 -3035697.823 20952213.807 10 0 55922 31500.00000 0 -11972489.809 -4384067.355 22101618.662 10 0 55922 32400.00000 0 -9691719.323 -5966673.609 22822175.469 10 0 55922 33300.00000 0 -7485549.025 -7753742.447 23099244.786 10 0 55922 34200.00000 0 -5411385.535 -9704386.059 22926774.626 10 0 55922 35100.00000 0 -3518751.086 -11768101.484 22307469.570 10 0 55922 36000.00000 0 -1847379.194 -13886697.403 21252788.694 10 0 55922 36900.00000 0 -425727.294 -15996572.011 19782768.356 10 0 55922 37800.00000 0 730027.934 -18031248.531 17925669.550 10 0 55922 38700.00000 0 1616466.902 -19924062.349 15717453.523 10 0 55922 39600.00000 0 2242851.965 -21610885.427 13201093.582 10 0 55922 40500.00000 0 2630501.812 -23032770.625 10425735.319 10 0 55922 41400.00000 0 2811640.923 -24138400.734 7445721.657 10 0 55922 42300.00000 0 2827773.306 -24886234.483 4319503.164 10 0 55922 43200.00000 0 2727651.577 -25246254.740 1108457.447 10 0 55922 44100.00000 0 2564930.986 -25201241.428 -2124355.789 10 0 55922 45000.00000 0 2395612.518 -24747512.936 -5315475.354 10 0 55922 45900.00000 0 2275388.757 -23895103.813 -8402325.335 10 0 55922 46800.00000 0 2257010.326 -22667372.007 -11324478.475 10 0 55922 47700.00000 0 2387789.223 -21100054.557 -14024867.515 10 0 55922 48600.00000 0 2707348.459 -19239815.189 -16450917.950 10 0 55922 49500.00000 0 3245715.415 -17142349.336 -18555578.286 10 0 55922 50400.00000 0 4021840.078 -14870130.930 -20298227.173 10 0 55922 51300.00000 0 5042599.738 -12489899.704 -21645440.623 10 0 55922 52200.00000 0 6302329.759 -10069997.512 -22571606.459 10 0 55922 53100.00000 0 7782896.863 -7677667.000 -23059377.082 10 0 55922 54000.00000 0 9454308.157 -5376425.586 -23099955.560 10 0 55922 54900.00000 0 11275826.709 -3223622.708 -22693213.647 10 0 55922 55800.00000 0 13197543.812 -1268279.025 -21847643.579 10 0 55922 56700.00000 0 15162340.093 450706.920 -20580148.445 10 0 55922 57600.00000 0 17108152.633 1905915.274 -18915678.457 10 0 55922 58500.00000 0 18970453.877 3082273.801 -16886722.617 10 0 55922 59400.00000 0 20684840.698 3977408.481 -14532667.174 10 0 55922 60300.00000 0 22189628.482 4601465.985 -11899033.758 10 0 55922 61200.00000 0 23428345.679 4976419.117 -9036611.559 10 0 55922 62100.00000 0 24352028.836 5134886.643 -6000498.968 10 0 55922 63000.00000 0 24921226.361 5118517.785 -2849071.068 10 0 55922 63900.00000 0 25107630.868 4976008.497 357109.702 10 0 55922 64800.00000 0 24895274.613 4760830.977 3556421.779 10 0 55922 65700.00000 0 24281239.548 4528769.092 6687333.176 10 0 55922 66600.00000 0 23275852.407 4335360.096 9689551.601 10 0 55922 67500.00000 0 21902355.398 4233347.113 12505156.926 10 0 55922 68400.00000 0 20196063.589 4270246.866 15079696.747 10 0 55922 69300.00000 0 18203040.530 4486133.211 17363225.863 10 0 55922 70200.00000 0 15978342.968 4911729.228 19311270.944 10 0 55922 71100.00000 0 13583903.159 5566889.012 20885702.226 10 0 55922 72000.00000 0 11086132.620 6459535.420 22055494.893 10 0 55922 72900.00000 0 8553343.267 7585102.143 22797364.127 10 0 55922 73800.00000 0 6053090.486 8926508.408 23096259.333 10 0 55922 74700.00000 0 3649547.303 10454672.800 22945704.933 10 0 55922 75600.00000 0 1401018.843 12129550.251 22347977.648 10 0 55922 76500.00000 0 -642298.126 13901653.877 21314112.851 10 0 55922 77400.00000 0 -2440214.635 15714001.944 19863735.915 10 0 55922 78300.00000 0 -3964025.434 17504411.095 18024718.059 10 0 55922 79200.00000 0 -5197496.100 19208040.664 15832660.195 10 0 55922 80100.00000 0 -6137316.521 20760080.477 13330212.471 10 0 55922 81000.00000 0 -6792998.991 22098466.800 10566241.551 10 0 55922 81900.00000 0 -7186223.673 23166508.488 7594861.797 10 0 55922 82800.00000 0 -7349658.797 23915308.141 4474350.631 10 0 55922 83700.00000 0 -7325306.884 24305871.437 1265971.737 10 0 55922 84600.00000 0 -7162449.929 24310811.284 -1967267.428 10 0 55922 85500.00000 0 -6915284.720 23915571.380 -5161895.205 10 0 55923 0.00000 0 -6640353.576 23119115.590 -8255262.846 10 0 55923 900.00000 0 -6393885.006 21934053.274 -11186809.923 10 0 55923 1800.00000 0 -6229161.303 20386197.510 -13899278.501 10 0 55923 2700.00000 0 -6194030.233 18513576.144 -16339850.455 10 0 55923 3600.00000 0 -6328667.565 16364942.460 -18461183.185 10 0 55923 4500.00000 0 -6663687.506 13997851.624 -20222323.117 10 0 55923 5400.00000 0 -7218680.126 11476388.250 -21589480.036 10 0 55923 6300.00000 0 -8001235.783 8868643.782 -22536649.200 10 0 55923 7200.00000 0 -9006494.654 6244051.777 -23046072.103 10 0 55923 8100.00000 0 -10217236.534 3670693.295 -23108530.737 10 0 55923 9000.00000 0 -11604503.177 1212684.011 -22723473.776 10 0 55923 9900.00000 0 -13128723.360 -1072250.406 -21898976.391 10 0 55923 10800.00000 0 -14741290.568 -3134913.609 -20651538.381 10 0 55923 11700.00000 0 -16386525.473 -4936408.506 -19005727.785 10 0 55923 12600.00000 0 -18003940.550 -6449469.652 -16993679.415 10 0 55923 13500.00000 0 -19530713.011 -7659308.334 -14654459.585 10 0 55923 14400.00000 0 -20904264.818 -8563940.394 -12033309.850 10 0 55923 15300.00000 0 -22064844.995 -9173987.463 -9180784.052 10 0 55923 16200.00000 0 -22958010.076 -9511963.097 -6151794.025 10 0 55923 17100.00000 0 -23536902.930 -9611075.434 -3004580.304 10 0 55923 18000.00000 0 -23764238.337 -9513596.726 200374.890 10 0 55923 18900.00000 0 -23613915.342 -9268867.017 3401474.456 10 0 55923 19800.00000 0 -23072190.884 -8931013.530 6537154.616 10 0 55923 20700.00000 0 -22138366.326 -8556478.571 9547035.471 10 0 55923 21600.00000 0 -20824957.426 -8201456.582 12373054.819 10 0 55923 22500.00000 0 -19157338.484 -7919345.043 14960566.002 10 0 55923 23400.00000 0 -17172872.161 -7758313.933 17259380.566 10 0 55923 24300.00000 0 -14919556.962 -7759094.587 19224737.007 10 0 55923 25200.00000 0 -12454243.904 -7953080.782 20818177.384 10 0 55923 26100.00000 0 -9840491.783 -8360823.229 22008314.453 10 0 55923 27000.00000 0 -7146145.812 -8990983.489 22771473.208 10 0 55923 27900.00000 0 -4440736.659 -9839795.270 23092192.262 10 0 55923 28800.00000 0 -1792805.690 -10891060.599 22963572.390 10 0 55923 29700.00000 0 732733.426 -12116686.355 22387461.977 10 0 55923 30600.00000 0 3077086.595 -13477743.856 21374471.844 10 0 55923 31500.00000 0 5189819.026 -14926011.531 19943815.187 10 0 55923 32400.00000 0 7030746.660 -16405939.287 18122971.942 10 0 55923 33300.00000 0 8571396.842 -17856953.896 15947180.873 10 0 55923 34200.00000 0 9795973.439 -19216008.559 13458766.879 10 0 55923 35100.00000 0 10701782.761 -20420267.709 10706315.327 10 0 55923 36000.00000 0 11299100.072 -21409810.871 7743709.421 10 0 55923 36900.00000 0 11610481.250 -22130237.241 4629050.654 10 0 55923 37800.00000 0 11669549.172 -22535056.254 1423485.901 10 0 55923 38700.00000 0 11519308.240 -22587758.384 -1810032.546 10 0 55923 39600.00000 0 11210061.874 -22263474.504 -5008025.437 10 0 55923 40500.00000 0 10797025.843 -21550150.693 -8107774.064 10 0 55923 41400.00000 0 10337743.808 -20449187.346 -11048587.215 10 0 55923 42300.00000 0 9889419.861 -18975515.798 -13773018.787 10 0 55923 43200.00000 0 9506285.770 -17157110.951 -16228009.263 10 0 55923 44100.00000 0 9237118.010 -15033963.473 -18365926.878 10 0 55923 45000.00000 0 9123011.751 -12656558.708 -20145487.483 10 0 55923 45900.00000 0 9195506.330 -10083930.311 -21532535.953 10 0 55923 46800.00000 0 9475140.161 -7381373.971 -22500675.922 10 0 55923 47700.00000 0 9970493.374 -4617919.909 -23031738.522 10 0 55923 48600.00000 0 10677754.831 -1863671.372 -23116084.818 10 0 55923 49500.00000 0 11580827.542 812879.848 -22752740.174 10 0 55923 50400.00000 0 12651963.802 3347450.480 -21949362.123 10 0 55923 51300.00000 0 13852899.707 5682370.484 -20722046.261 10 0 55923 52200.00000 0 15136438.701 7768699.768 -19094977.248 10 0 55923 53100.00000 0 16448416.235 9567973.976 -17099934.209 10 0 55923 54000.00000 0 17729963.095 11053512.395 -14775661.741 10 0 55923 54900.00000 0 18919973.816 12211238.973 -12167119.255 10 0 55923 55800.00000 0 19957679.186 13039987.037 -9324622.903 10 0 55923 56700.00000 0 20785218.373 13551278.880 -6302895.365 10 0 55923 57600.00000 0 21350106.699 13768591.929 -3160039.823 10 0 55923 58500.00000 0 21607499.444 13726143.230 43544.645 10 0 55923 59400.00000 0 21522160.176 13467242.806 3246288.380 10 0 55923 60300.00000 0 21070053.631 13042283.263 6386598.744 10 0 55923 61200.00000 0 20239497.730 12506447.345 9404011.037 10 0 55923 62100.00000 0 19031826.395 11917226.502 12240323.600 10 0 55923 63000.00000 0 17461533.850 11331851.367 14840697.905 10 0 55923 63900.00000 0 15555891.455 10804739.133 17154704.374 10 0 55923 64800.00000 0 13354048.965 10385062.877 19137295.183 10 0 55923 65700.00000 0 10905652.799 10114543.910 20749685.802 10 0 55923 66600.00000 0 8269033.756 10025560.157 21960127.849 10 0 55923 67500.00000 0 5509034.502 10139651.737 22744557.106 10 0 55923 68400.00000 0 2694562.782 10466489.537 23087102.023 10 0 55923 69300.00000 0 -104031.250 11003354.199 22980439.944 10 0 55923 70200.00000 0 -2817646.605 11735152.216 22425990.691 10 0 55923 71100.00000 0 -5381080.561 12634973.490 21433939.816 10 0 55923 72000.00000 0 -7735524.025 13665171.584 20023087.115 10 0 55923 72900.00000 0 -9830796.953 14778925.085 18220519.528 10 0 55923 73800.00000 0 -11627227.417 15922216.948 16061111.515 10 0 55923 74700.00000 0 -13097091.970 17036149.371 13586860.201 10 0 55923 75600.00000 0 -14225553.468 18059495.864 10846066.882 10 0 55923 76500.00000 0 -15011053.959 18931380.403 7892380.648 10 0 55923 77400.00000 0 -15465144.194 19593966.786 4783724.055 10 0 55923 78300.00000 0 -15611756.484 19995039.816 1581124.145 10 0 55923 79200.00000 0 -15485952.775 20090364.246 -1652524.908 10 0 55923 80100.00000 0 -15132203.541 19845716.962 -4853739.120 10 0 55923 81000.00000 0 -14602274.405 19238502.664 -7959732.483 10 0 55923 81900.00000 0 -13952814.932 18258882.194 -10909685.637 10 0 55923 82800.00000 0 -13242756.967 16910364.933 -13645966.559 10 0 55923 83700.00000 0 -12530637.765 15209840.975 -16115276.342 10 0 55923 84600.00000 0 -11871965.362 13187053.852 -18269695.774 10 0 55923 85500.00000 0 -11316740.499 10883539.313 -20067611.523 10 0 55924 0.00000 0 -10907241.012 8351078.620 -21474504.612 10 0 55924 900.00000 0 -10676161.984 5649734.785 -22463587.860 10 0 55924 1800.00000 0 -10645187.166 2845557.948 -23016282.480 10 0 55924 2700.00000 0 -10824049.866 8057.318 -23122528.751 10 0 55924 3600.00000 0 -11210116.947 -2792453.607 -22780928.551 10 0 55924 4500.00000 0 -11788509.933 -5487528.567 -21998721.243 10 0 55924 5400.00000 0 -12532753.225 -8013167.979 -20791597.344 10 0 55924 6300.00000 0 -13405918.671 -10312202.625 -19183356.888 10 0 55924 7200.00000 0 -14362215.854 -12336387.103 -17205421.728 10 0 55924 8100.00000 0 -15348960.135 -14048121.317 -14896212.850 10 0 55924 9000.00000 0 -16308836.097 -15421733.888 -12300405.389 10 0 55924 9900.00000 0 -17182362.963 -16444279.048 -9468075.481 10 0 55924 10800.00000 0 -17910461.193 -17115818.173 -6453754.209 10 0 55924 11700.00000 0 -18437015.973 -17449177.374 -3315404.876 10 0 55924 12600.00000 0 -18711333.692 -17469192.993 -113340.839 10 0 55924 13500.00000 0 -18690391.892 -17211476.966 3090898.300 10 0 55924 14400.00000 0 -18340791.168 -16720752.686 6235693.677 10 0 55924 15300.00000 0 -17640329.071 -16048828.905 9260498.431 10 0 55924 16200.00000 0 -16579130.627 -15252293.652 12106974.061 10 0 55924 17100.00000 0 -15160287.205 -14390021.483 14720092.700 10 0 55924 18000.00000 0 -13399974.684 -13520595.343 17049186.035 10 0 55924 18900.00000 0 -11327042.306 -12699748.413 19048922.085 10 0 55924 19800.00000 0 -8982084.629 -11977931.352 20680191.604 10 0 55924 20700.00000 0 -6416030.033 -11398106.319 21910886.584 10 0 55924 21600.00000 0 -3688299.090 -10993860.988 22716554.702 10 0 55924 22500.00000 0 -864604.321 -10787923.680 23080914.922 10 0 55924 23400.00000 0 1985521.317 -10791145.163 22996221.409 10 0 55924 24300.00000 0 4791367.487 -11001994.001 22463465.246 10 0 55924 25200.00000 0 7483752.725 -11406591.248 21492406.151 10 0 55924 26100.00000 0 9997681.136 -11979287.641 20101429.572 10 0 55924 27000.00000 0 12274837.378 -12683763.066 18317228.144 10 0 55924 27900.00000 0 14265813.142 -13474605.058 16174310.362 10 0 55924 28800.00000 0 15931968.440 -14299301.403 13714343.561 10 0 55924 29700.00000 0 17246846.019 -15100562.792 10985342.587 10 0 55924 30600.00000 0 18197075.988 -15818875.737 8040719.719 10 0 55924 31500.00000 0 18782729.896 -16395174.634 4938215.570 10 0 55924 32400.00000 0 19017107.918 -16773515.610 1738734.146 10 0 55924 33300.00000 0 18925968.240 -16903634.005 -1494891.828 10 0 55924 34200.00000 0 18546232.919 -16743272.198 -4699176.940 10 0 55924 35100.00000 0 17924228.222 -16260174.771 -7811271.076 10 0 55924 36000.00000 0 17113538.308 -15433663.172 -10770229.707 10 0 55924 36900.00000 0 16172568.206 -14255721.355 -13518237.580 10 0 55924 37800.00000 0 15161924.362 -12731546.182 -16001758.763 10 0 55924 38700.00000 0 14141728.204 -10879540.573 -18172588.601 10 0 55924 39600.00000 0 13168979.806 -8730752.244 -19988786.224 10 0 55924 40500.00000 0 12295085.022 -6327785.031 -21415470.101 10 0 55924 41400.00000 0 11563650.712 -3723232.192 -22425463.007 10 0 55924 42300.00000 0 11008639.572 -977700.931 -22999776.734 10 0 55924 43200.00000 0 10652959.236 1842486.540 -23127930.853 10 0 55924 44100.00000 0 10507540.880 4667817.814 -22808103.435 10 0 55924 45000.00000 0 10570941.236 7428235.503 -22047115.009 10 0 55924 45900.00000 0 10829479.764 10055794.107 -20860250.004 10 0 55924 46800.00000 0 11257900.775 12487220.834 -19270922.526 10 0 55924 47700.00000 0 11820529.020 14666277.817 -17310195.558 10 0 55924 48600.00000 0 12472867.939 16545832.402 -15016164.610 10 0 55924 49500.00000 0 13163572.478 18089554.652 -12433218.392 10 0 55924 50400.00000 0 13836714.179 19273176.510 -9611190.624 10 0 55924 51300.00000 0 14434245.210 20085264.794 -6604418.144 10 0 55924 52200.00000 0 14898560.641 20527479.488 -3470721.538 10 0 55924 53100.00000 0 15175054.759 20614308.866 -270325.462 10 0 55924 54000.00000 0 15214567.574 20372293.594 2935263.548 10 0 55924 54900.00000 0 14975621.958 19838771.810 6084403.398 10 0 55924 55800.00000 0 14426359.946 19060196.011 9116467.923 10 0 55924 56700.00000 0 13546098.171 18090089.535 11972984.456 10 0 55924 57600.00000 0 12326437.096 16986724.870 14598738.232 10 0 55924 58500.00000 0 10771875.943 15810617.526 16942824.380 10 0 55924 59400.00000 0 8899904.530 14621937.184 18959628.669 10 0 55924 60300.00000 0 6740563.784 13477941.911 20609718.746 10 0 55924 61200.00000 0 4335488.192 12430541.387 21860628.295 10 0 55924 62100.00000 0 1736464.418 11524090.839 22687517.874 10 0 55924 63000.00000 0 -996439.439 10793509.109 23073697.584 10 0 55924 63900.00000 0 -3797100.966 10262802.036 23010998.622 10 0 55924 64800.00000 0 -6595838.219 9944056.389 22499983.089 10 0 55924 65700.00000 0 -9322070.918 9836950.638 21549984.115 10 0 55924 66600.00000 0 -11907038.114 9928807.457 20178971.528 10 0 55924 67500.00000 0 -14286458.444 10195189.841 18413241.868 10 0 55924 68400.00000 0 -16403019.886 10601019.083 16286935.391 10 0 55924 69300.00000 0 -18208591.658 11102169.701 13841386.972 10 0 55924 70200.00000 0 -19666061.853 11647474.674 11124322.034 10 0 55924 71100.00000 0 -20750719.799 12181055.312 8188912.893 10 0 55924 72000.00000 0 -21451121.583 12644874.693 5092715.006 10 0 55924 72900.00000 0 -21769399.941 12981402.688 1896506.149 10 0 55924 73800.00000 0 -21721004.490 13136274.910 -1336945.486 10 0 55924 74700.00000 0 -21333883.886 13060827.778 -4544156.007 10 0 55924 75600.00000 0 -20647146.829 12714397.366 -7662213.956 10 0 55924 76500.00000 0 -19709262.191 12066280.533 -10630052.189 10 0 55924 77400.00000 0 -18575879.091 11097272.481 -13389674.532 10 0 55924 78300.00000 0 -17307364.222 9800714.370 -15887310.054 10 0 55924 79200.00000 0 -15966165.363 8183007.000 -18074470.356 10 0 55924 80100.00000 0 -14614116.607 6263570.651 -19908888.356 10 0 55924 81000.00000 0 -13309801.718 4074255.599 -21355320.891 10 0 55924 81900.00000 0 -12106087.923 1658231.526 -22386201.302 10 0 55924 82800.00000 0 -11047933.329 -931593.950 -22982132.125 10 0 55924 83700.00000 0 -10170557.841 -3634558.298 -23132212.045 10 0 55924 84600.00000 0 -9498050.623 -6384543.585 -22834194.812 10 0 55924 85500.00000 0 -9042467.873 -9112495.457 -22094481.281 99